Regional Weather Roundup
Issued by NWS

Home | Current Version | Previous Version | Graphics & Text | Print | Product List | Glossary On
Versions: 1 2 3 4 5 6 7 8 9 10 11 12 13 14 15 16 17 18 19 20 21 22 23 24 25 26 27 28 29 30 31 32 33 34 35 36 37 38 39 40 41 42 43 44 45 46 47 48 49 50
000
ASUS43 KMKX 030411
RWRWI

WISCONSIN REGIONAL WEATHER ROUNDUP
NATIONAL WEATHER SERVICE MILWAUKEE/SULLIVAN WI
1100 PM CDT WED SEP 02 2015

NOTE: "FAIR" INDICATES FEW OR NO CLOUDS BELOW 12,000 FEET WITH NO
SIGNIFICANT WEATHER AND/OR OBSTRUCTIONS TO VISIBILITY.

WIZ001-002-006>008-014>016-023>028-030500-
NORTHWEST WISCONSIN

CITY           SKY/WX    TMP DP  RH WIND       PRES   REMARKS
SUPERIOR ARPT  CLOUDY    59  58  97 NE6       29.97S
ASHLAND        FOG       63  63 100 NE5       29.98S VSB 1/4
HAYWARD        CLEAR     66  64  93 N5        29.97R
SIREN          MOCLDY    67  65  94 CALM      29.95R
CUMBERLAND     CLEAR     64  63  94 CALM      29.96R
RICE LAKE      PTCLDY    64  63  94 CALM      29.96R FOG
CHETEK         MOCLDY   N/A N/A N/A MISG      29.94S
LADYSMITH      CLOUDY    69  67  94 NE5       29.97S
EAU CLAIRE     CLOUDY    69  67  93 NE5       29.92S
MENOMONIE      PTCLDY    68  67  96 CALM      29.93S
NEW RICHMOND   PTCLDY    67  66  97 E3        29.94R
OSCEOLA        PTCLDY    67  67 100 CALM      29.96R
$$

WIZ003>005-009-010-017-018-030500-
NORTH CENTRAL WISCONSIN

CITY           SKY/WX    TMP DP  RH WIND       PRES   REMARKS
MANITOWISH WTR CLOUDY    64  64 100 CALM      30.00R
ARBOR VITAE    CLOUDY    67  65  94 CALM      29.99S
WOODRUFF       CLOUDY    67  65  94 CALM      29.99S
RHINELANDER    CLOUDY    66  64  93 NE7       29.99S
EAGLE RIVER    LGT RAIN  65  65  99 E7        30.00S
LAND O LAKES   CLOUDY    65  65  97 CALM      30.01S
PHILLIPS       CLOUDY    65  64  97 CALM      29.97S
TOMAHAWK       CLOUDY    66  64  94 NE3       29.98R
MEDFORD        CLOUDY    67  67 100 CALM      29.96R FOG
MERRILL        CLOUDY    67  67 100 CALM      29.96F
$$

WIZ029-030-035-036-043>047-030500-
CENTRAL WISCONSIN

CITY           SKY/WX    TMP DP  RH WIND       PRES   REMARKS
WAUSAU         LGT RAIN  69  67  93 E3        29.93S
MOSINEE        CLOUDY    68  68 100 N3        29.95F FOG
MARSHFIELD     CLOUDY    72  67  84 NE7       29.94S
STEVENS POINT  PTCLDY    68  67  98 CALM      29.93F FOG
WAUPACA        MOCLDY    73  71  95 CALM      29.93S
WAUTOMA        CLOUDY    75  70  85 CALM      29.93S
WISC RAPIDS    CLOUDY    73  70  90 CALM      29.94S
CAMP DOUGLAS   MOCLDY    77  77 100 S9        29.92S
$$

WIZ011>013-019>022-031-037>040-048>050-030500-
NORTHEAST WISCONSIN

CITY           SKY/WX    TMP DP  RH WIND       PRES   REMARKS
ANTIGO         CLOUDY    66  66  98 E5        29.96F
SHAWANO        CLOUDY    69  67  91 E7        29.92F
OCONTO         CLOUDY    67  67 100 SW3       29.92S
STURGEON BAY   MOCLDY    68  64  88 SE8       29.95F
GREEN BAY      CLOUDY    70  68  93 E5        29.92F FOG
MANITOWOC      MOCLDY    60  58  92 MISG      29.94F FOG
APPLETON       MOCLDY    73  66  78 S6        29.91F
CLINTONVILLE   CLOUDY    68  64  88 E3        29.91F
OSHKOSH        PTCLDY    74  68  81 S8        29.93S
$$

WIZ032>034-041-042-053>061-030500-
SOUTHWEST WISCONSIN

CITY           SKY/WX    TMP DP  RH WIND       PRES   REMARKS
LA CROSSE      MOCLDY    78  70  76 S8        29.90S HX  80
SPARTA         PTCLDY    69  67  93 CALM      29.93S
VIROQUA          N/A     73  70  91 S5        29.95S
BOSCOBEL       CLOUDY    79  69  71 SW7       29.94R HX  81
PRAIRIE DU CHI CLEAR     74  66  77 CALM      29.92S
PLATTEVILLE    CLEAR     72  70  92 S5        29.96S
$$

WIZ056-057-062-063-064-067-068-030500-
SOUTH CENTRAL WISCONSIN

CITY           SKY/WX    TMP DP  RH WIND       PRES   REMARKS
REEDSBURG      MOCLDY    73  69  87 CALM      29.94R
BARABOO/DELLS  CLOUDY    72  68  86 CALM      29.95S
LONE ROCK      CLEAR     71  68  90 CALM      29.94R
MINERAL POINT  CLOUDY    77  70  78 SW7       29.97R
MADISON        CLOUDY    77  68  73 S3        29.95R
MIDDLETON      CLOUDY    75  70  83 SW3       29.96R
WATERTOWN      CLOUDY    74  73  98 CALM      29.96R
MONROE         MOCLDY    73  70  88 SW8       29.97R
JANESVILLE     PTCLDY    77  68  73 CALM      29.95S
$$

WIZ051-052-058>065-066-070>072-030500-
SOUTHEAST WISCONSIN

CITY           SKY/WX    TMP DP  RH WIND       PRES   REMARKS
MILWAUKEE      MOCLDY    78  71  79 S6        29.95F HX  80
WAUKESHA       PTCLDY    73  68  83 CALM      29.97S
MILWAUKEE/TIMM CLOUDY    77  68  73 S5        29.96S
RACINE         CLOUDY    75  70  84 S5        29.97F
BURLINGTON     PTCLDY    70  68  95 SW3       29.96S
KENOSHA        MOCLDY    77  70  79 S5        29.97S
FOND DU LAC    PTCLDY    73  69  87 S6        29.94S
SHEBOYGAN      CLOUDY    72  69  90 S5        29.94F
WEST BEND      CLOUDY    72  68  88 CALM      29.96S
JUNEAU         CLOUDY    74  68  83 CALM      29.96S
$$

LSZ147-162-030500-
LAKE SUPERIOR

STATION/POSITION TIME  TEMP    WIND        PRES    WAVE
                       AIR SEA DIR/SP/G            HT/PER
                 (UTC) (F)     (DEG/KT/KT) (MB)    (FT/S)
W MID LAKE BUOY  0350   58 56   80/  6/  6 1014.8F   0
DEVILS ISLAND    0400   59      40/  3/  3 1015.2R
PORT WING        0300   62      70/  3/  6 1014.6S
SAXON HARBOR     0340   61      CALM  /  2 1014.6R
$$

LMZ867-665-643>646-030500-
LAKE MICHIGAN

STATION/POSITION TIME  TEMP    WIND        PRES    WAVE
                       AIR SEA DIR/SP/G            HT/PER
                 (UTC) (F)     (DEG/KT/KT) (MB)    (FT/S)
CHAMBERS ISLAND  0300   68     100/  6/ 13 1013.2S
S GREEN BAY BUOY 0400   67 66  140/  6/  6 1014.8R
N MID LAKE BUOY  0350   68 66  150/  4/  6 1013.7S   1
NORTHPORT PIER   0300   67     150/  9/ 12 1013.5F
SISTER BAY       0319   68     140/ 10/ 15   N/A
ALGOMA LAKESHORE 0314           CALM  /  3   N/A
KEWAUNEE LAKESHO 0300   58     170/  5/  6 1013.2F
SHEBOYGAN LAKESH 0400   67     160/ 12/ 14 1013.9F
PORT WASHINGTON  0300   61      CALM  /  1 1014.9R
ATWATER BUOY     0400   61     150/  6/  6 1015.4F
MILWAUKEE LAKESH 0310   63      CALM  /  1   N/A
S MID LAKE BUOY  0350   73 71  170/  6/  6 1014.3R
KENOSHA   LAKESH 0400   69     170/ 10/ 12 1014.2S
$$

TC  - TEMPERATURE IN CELSIUS
VSB - VISIBILITY IN STATUTE MILES
WCI - WIND CHILL INDEX
HX  - HEAT INDEX




USA.gov is the U.S. government's official web portal to all federal, state and local government web resources and services.